Probability
0 0 0 0 0 0 0 0 0 0 0 0 0 0 0 0 0 0 0 0 0 0 0 0 0 0 0 0 0 0 0 0 0 0 0 0 0 0 0 0 0 0 0 0
0 0 0 0 0 0 0 0 0 0 0 0 0 0 0 0 0 0 0 0 0 0 0 0 0 0 0 0 0 0 0 0 0 0 0 0 0 0 0 0 0 0 0 0
0 0 0 0 0 0 0 0 0 0 0 0 0 0 0 0 0 0 0 0 0 0 0 0 0 0 0 0 0 0 0 0 0 0 0 0 0 0 0 0 0 0 0 0
0 0 0 0 0 0 0 0 0 0 0 0 0 0 0 0 0 0 0 0 0 0 0 0 0 0 0 0 0 0 0 0 0 0 0 0 0 0 0 0 0 0 0 0
0 0 0 0 0 0 0 0 0 0 0 0 0 0 0 0 0 0 0 0 0 0 0 0 0 0 0 0 0 0 0 0 0 0 0 0 0 0 0 0 0 0 0 0
0 0 0 0 0 0 0 0 0 0 0 0 0 0 0 0 0 0 0 0 0 0 0 0 0 0 0 0 0 0 0 0 0 0 0 0 0 0 0 0 0 0 0 0
0 0 0 0 0 0 0 0 0 0 0 0 0 0 0 0 0 0 0 0 0 0 0 0 0 0 0 0 0 0 0 0 0 0 0 0 0 0 0 0 0 0 0 0
0 0 0 0 0 0 0 0 0 0 0 0 0 0 0 0 0 0 0 0 0 0 0 0 0 0 0 0 0 0 0 0 0 0 0 0 0 0 0 0 0 0 0 0
0 0 0 0 0 0 0 0 0 0 0 0 0 0 0 0 0 0 0 0 0 0 0 0 0 0 0 0 0 0 0 0 0 0 0 0 0 0 0 0 0 0 0 0
0 0 0 0 0 0 0 0 0 0 0 0 0 0 0 0 0 0 0 0 0 0 0 0 0 0 0 0 0 0 0 0 0 0 0 0 0 0 0 0 0 0 0 0
0 0 0 0 0 0 0 0 0 0 0 0 0 0 0 0 0 0 0 0 0 0 0 0 0 0 0 0 0 0 0 0 0 0 0 0 0 0 0 0 0 0 0 0
0 0 0 0 0 0 0 0 0 0 0 0 0 0 0 0 0 0 0 0 0 0 0 0 0 0 0 0 0 0 0 0 0 0 0 0 0 0 0 0 0 0 0 0
0 0 0 0 0 0 0 0 0 0 0 0 0 0 0 0 0 0 0 0 0 0 0 0 0 0 0 0 0 0 0 0 0 0 0 0 0 0 0 0 0 0 0 0
0 0 0 0 0 0 0 0 0 0 0 0 0 0 0 0 0 0 0 0 0 0 0 0 0 0 0 0 0 0 0 0 0 0 0 0 0 0 0 0 0 0 0 0
0 0 0 0 0 0 0 0 0 0 0 0 0 0 0 0 0 0 0 0 0 0 0 0 0 0 0 0 0 0 0 0 0 0 0 0 0 0 0 0 0 0 0 0
0 0 0 0 0 0 0 0 0 0 0 0 0 0 0 0 0 0 0 0 0 0 0 0 0 0 0 0 0 0 0 0 0 0 0 0 0 0 0 0 0 0 0 0
0 0 0 0 0 0 0 0 0 0 0 0 0 0 0 0 0 0 0 0 0 0 0 0 0 0 0 0 0 0 0 0 0 0 0 0 0 0 0 0 0 0 0 0
0 0 0 0 0 0 0 0 0 0 0 0 0 0 0 0 0 0 0 0 0 0 0 0 0 0 0 0 0 0 0 0 0 0 0 0 0 0 0 0 0 0 0 0
0 0 0 0 0 0 0 0 0 0 0 0 0 0 0 0 0 0 0 0 0 0 0 0 0 0 0 0 0 0 0 0 0 0 0 0 0 0 0 0 0 0 0 0
0 0 0 0 0 0 0 0 0 0 0 0 0 0 0 0 0 0 0 0 0 0 0 0 0 0 0 0 0 0 0 0 0 0 0 0 0 0 0 0 0 0 0 0
0 0 0 0 0 0 0 0 0 0 0 0 0 0 0 0 0 0 0 0 0 0 0 0 0 0 0 0 0 0 0 0 0 0 0 0 0 0 0 0 0 0 0 0
0 0 0 0 0 0 0 0 0 0 0 0 0 0 0 0 0 0 0 0 0 0 0 0 0 0 0 0 0 0 0 0 0 0 0 0 0 0 0 0 0 0 0 0
0 0 0 0 0 0 0 0 0 0 0 0 0 0 0 0 0 0 0 0 0 0 0 0 0 0 0 0 0 0 0 0 0 0 0 0 0 0 0 0 0 0 0 0
0 0 0 0 0 0 0 0 0 0 0 0 0 0 0 0 0 0 0 0 0 0 0 0 0 0 0 0 0 0 0 0 0 0 0 0 0 0 0 0 0 0 0 0
0 0 0 0 0 0 0 0 0 0 0 0 0 0 0 0 0 0 0 0 0 0 0 0 0 0 0 0 0 0 0 0 0 0 0 0 0 0 0 0 0 0 0 0
0 0 0 0 0 0 0 0 0 0 0 0 0 0 0 0 0 0 0 0 0 0 0 0 0 0 0 0 0 0 0 0 0 0 0 0 0 0 0 0 0 0 0 0
0 0 0 0 0 0 0 0 0 0 0 0 0 0 0 0 0 0 0 0 0 0 0 0 0 0 0 0 0 0 0 0 0 0 0 0 0 0 0 0 0 0 0 0
Wind_Speed
7 6 4 6 8 7 9 10 10 11 11 15 10 8 7 6 5 5 5 4 4 3 2 1 1 1 1 1 1 2 4 4 4 3 4 4 4 4 5 5 6 5 5 5
4 5 6 7 10 10 10 8 9 9 12 12 7 4 5 6 6 6 6 5 5 4 4 3 3 2 2 1 1 2 4 4 4 4 4 4 4 4 5 5 5 5 5 5
5 3 2 8 11 10 8 8 9 11 13 6 5 7 8 7 7 8 7 6 6 5 5 5 4 4 3 2 2 3 3 4 5 5 5 4 4 4 5 4 4 5 4 4
2 1 7 12 5 6 7 9 9 8 7 7 9 6 5 6 7 8 7 7 6 5 5 4 3 3 3 3 3 4 4 4 5 5 5 5 5 4 4 3 4 4 4 4
3 4 9 10 6 6 6 9 7 9 9 5 2 1 5 8 9 9 8 7 6 6 5 4 4 4 3 3 3 4 4 5 5 5 5 5 5 4 3 4 4 4 4 4
4 4 8 11 6 2 4 6 7 7 9 5 6 1 8 6 8 8 7 6 6 5 4 4 4 4 4 4 4 5 5 5 5 5 6 5 5 4 3 4 5 5 5 5
5 6 10 10 5 4 4 9 5 6 8 8 10 11 7 3 5 7 7 7 6 6 5 5 4 5 5 5 5 5 5 5 5 5 5 5 4 3 4 5 6 5 6 4
4 5 11 6 4 7 11 6 4 6 8 9 12 10 6 5 6 7 7 7 7 6 6 5 5 6 5 6 5 5 6 6 6 5 4 5 5 4 5 6 6 5 5 4
10 11 9 5 9 9 5 6 7 7 9 10 10 10 9 8 8 8 8 8 7 7 6 5 5 6 7 5 5 7 7 6 6 5 4 5 5 5 5 5 5 4 4 4
7 10 10 10 9 8 8 10 10 9 9 8 11 11 9 8 8 8 8 8 7 7 6 6 6 7 7 6 7 8 7 6 6 5 5 4 4 4 5 5 5 5 4 4
9 10 9 9 10 11 10 9 9 9 8 9 11 11 10 9 10 10 9 7 7 8 8 8 7 7 7 7 9 8 8 7 6 5 5 4 3 3 4 4 5 6 5 4
11 12 9 10 9 8 8 9 10 9 9 8 11 13 11 11 10 10 10 8 8 9 9 8 7 8 7 8 10 9 7 7 5 5 4 4 4 3 2 2 5 6 6 6
13 14 11 12 13 12 11 11 11 10 11 10 10 11 11 11 10 10 10 11 12 12 11 9 8 8 9 9 10 10 8 8 6 6 6 5 5 5 4 2 3 5 7 8
13 10 10 11 13 12 11 11 9 9 9 9 9 9 9 10 9 11 14 15 14 11 10 10 10 10 10 10 11 10 9 10 9 7 7 6 6 5 5 5 4 2 3 6
14 9 9 12 11 10 8 7 6 7 7 7 6 7 9 10 12 15 14 12 11 11 11 11 11 11 10 11 11 11 9 7 7 7 6 6 6 6 5 5 4 3 2 3
16 15 14 13 12 12 11 9 6 6 6 5 5 6 9 10 11 10 9 11 12 15 14 13 13 12 11 12 12 10 9 12 10 7 7 7 6 6 6 6 5 5 5 5
17 19 18 17 16 16 15 14 12 11 10 9 8 6 4 5 6 7 9 12 14 14 14 15 14 11 12 13 12 9 8 10 13 8 7 8 7 8 7 7 7 7 7 7
8 8 8 8 10 11 13 14 14 14 13 13 12 8 4 3 6 8 8 9 9 9 11 14 13 12 13 13 12 9 9 8 8 8 8 7 7 8 7 7 8 9 7 7
9 8 8 7 6 5 6 8 11 12 13 13 12 11 9 6 6 5 4 7 10 13 14 13 16 15 14 15 14 9 10 10 9 8 8 9 9 7 7 8 8 8 8 6
11 11 10 10 8 7 6 6 7 9 11 11 11 11 11 9 7 5 5 8 11 12 11 12 15 14 15 15 17 11 12 12 11 10 9 9 9 8 8 9 8 8 8 7
14 14 14 13 12 11 10 9 9 10 11 11 10 12 13 12 9 6 5 7 9 10 9 14 14 13 14 13 17 12 12 12 12 11 10 10 10 9 9 9 9 8 8 8
13 14 15 15 14 13 11 10 11 12 12 12 12 12 12 12 10 8 8 8 8 9 9 9 11 15 17 17 14 14 14 14 12 11 11 10 10 10 9 9 9 9 8 8
13 14 15 15 15 15 14 12 12 12 13 13 13 12 12 11 9 8 9 7 7 10 9 9 13 19 22 17 14 15 15 15 14 13 12 11 11 10 10 11 9 9 9 9
13 14 14 15 15 14 14 14 13 11 12 12 12 12 11 10 9 9 9 11 13 12 9 10 16 20 22 15 14 14 15 14 14 13 12 12 11 10 10 10 9 9 9 10
14 15 15 15 14 12 12 13 13 13 12 10 11 12 11 9 9 9 8 9 12 12 9 12 17 19 16 14 15 15 14 14 13 13 12 11 11 11 10 10 9 9 9 9
13 13 13 13 12 11 10 10 10 10 9 10 10 10 9 8 8 8 8 9 12 11 9 7 9 12 12 14 15 15 14 14 14 13 12 12 12 11 10 10 12 10 9 8
13 12 10 10 10 9 9 10 10 10 10 10 11 11 10 9 8 8 9 8 8 7 7 6 7 8 10 12 13 13 13 12 11 11 11 11 9 9 10 11 9 8 8 8
Wind_Direction
230 233 205 225 233 199 196 205 214 239 242 259 260 253 257 263 266 269 266 247 236 220 218 215 207 256 249 193 138 140 142 142 141 133 124 114 104 99 97 96 93 85 74 58
260 253 234 254 253 239 226 221 226 247 260 253 250 239 251 255 253 254 248 235 228 215 203 198 197 193 196 178 139 137 140 140 134 128 123 111 105 102 97 94 90 82 70 62
255 283 333 269 243 231 223 216 199 223 243 253 230 231 235 238 237 241 240 230 218 207 199 198 196 190 188 181 148 138 139 135 130 126 120 112 108 104 102 103 101 89 75 66
216 136 232 243 240 207 221 246 220 228 244 227 222 233 237 223 221 235 232 223 215 206 200 199 199 194 179 165 155 147 142 138 136 133 127 119 112 110 104 107 110 100 84 71
157 219 266 287 267 203 205 262 233 222 243 242 195 16 285 233 213 222 221 213 209 201 195 195 198 190 169 167 162 157 156 153 153 146 139 133 128 122 110 113 110 101 90 76
160 205 248 249 260 188 142 270 255 212 232 205 134 213 264 244 208 218 215 207 201 190 181 195 205 181 172 178 176 179 172 161 154 150 146 145 142 128 117 120 118 109 89 74
205 227 259 254 262 133 187 243 258 213 218 185 190 216 232 214 203 205 201 200 191 181 189 204 191 170 184 190 198 192 166 151 147 144 144 141 132 122 127 125 117 107 96 77
192 213 256 250 165 191 221 235 246 229 220 207 221 239 239 227 220 205 198 195 186 186 204 207 184 176 192 206 202 170 155 151 147 144 143 136 130 126 131 132 126 120 110 92
199 220 238 230 216 234 226 231 241 233 232 218 227 239 235 228 220 208 200 195 187 190 203 207 193 185 197 206 174 159 155 155 150 142 135 141 144 142 138 141 140 139 133 125
255 262 258 256 255 257 241 236 246 239 234 217 222 234 230 221 213 205 201 196 188 184 198 210 204 199 202 182 166 160 161 159 153 147 142 142 146 153 154 158 154 150 150 148
258 269 282 276 258 251 253 251 255 255 237 223 223 231 223 215 210 205 201 193 183 189 200 209 201 201 195 174 164 164 164 163 160 158 154 149 143 157 169 175 172 165 170 163
257 256 245 255 258 262 262 261 255 253 255 239 220 229 220 215 211 203 199 189 189 198 204 207 196 199 191 177 171 166 167 169 168 163 160 154 143 112 75 145 173 172 164 159
262 272 264 260 266 264 255 254 254 247 244 247 236 226 219 215 209 200 196 192 198 202 204 199 194 199 192 181 177 175 176 176 173 170 168 166 164 158 145 92 109 159 173 176
280 280 279 271 268 270 262 258 260 260 253 243 238 226 217 215 204 198 203 204 200 197 196 193 195 204 195 182 182 185 182 182 178 179 177 175 176 173 167 164 166 182 201 203
334 319 285 291 300 301 293 282 278 277 276 267 248 225 214 209 209 212 210 198 186 189 195 194 201 207 189 182 185 186 184 184 182 179 179 178 176 174 176 180 184 188 192 219
352 4 5 0 351 346 345 341 330 322 322 310 288 249 226 219 220 219 202 183 183 196 198 197 205 204 184 183 186 187 189 191 182 180 179 179 180 182 187 193 200 206 217 221
6 9 7 7 8 7 7 3 358 353 350 344 327 302 259 224 219 215 203 197 201 204 197 197 203 193 182 185 187 189 190 193 189 184 187 187 187 192 196 199 206 215 227 222
351 349 347 350 354 357 356 353 348 344 340 336 336 335 318 250 231 230 218 201 200 208 206 203 196 184 184 187 188 190 189 190 190 190 191 193 195 198 199 203 211 220 232 228
319 316 316 317 318 324 330 332 331 327 323 323 326 324 314 295 269 254 219 194 200 214 217 204 191 186 189 191 187 189 191 192 193 195 195 197 200 202 202 207 214 220 226 222
302 298 292 286 277 270 271 276 288 298 301 303 308 307 304 298 290 272 231 215 217 222 214 194 191 195 196 194 190 192 195 198 200 200 200 200 204 206 208 212 217 221 222 221
305 304 299 293 285 273 262 255 257 267 275 279 285 289 289 288 283 271 247 244 241 228 216 195 194 199 199 194 192 196 198 201 203 203 204 205 207 211 212 214 216 218 220 221
301 303 302 299 293 287 277 265 257 258 261 262 263 267 276 281 278 267 248 245 250 232 218 207 203 202 198 194 196 199 201 203 205 206 206 205 206 210 215 216 217 219 220 221
302 301 301 299 296 293 289 281 271 264 262 262 263 263 264 266 267 263 267 258 249 238 224 216 209 201 195 195 200 201 203 204 206 207 208 207 207 209 213 215 217 218 218 219
304 304 301 298 297 295 291 286 283 279 274 270 267 265 264 267 265 256 253 257 253 248 237 226 216 205 195 201 203 203 204 205 206 208 209 209 209 209 210 213 215 217 218 218
303 302 301 299 297 294 290 287 286 282 280 278 275 272 268 261 260 263 260 257 255 252 244 233 221 209 202 205 204 204 205 205 206 206 207 207 209 209 209 210 213 215 216 216
300 303 300 295 290 289 290 288 284 282 282 282 282 278 274 269 262 260 260 258 256 251 243 236 222 209 209 207 205 204 204 204 203 206 207 206 209 208 209 209 210 212 215 214
297 297 297 296 293 289 286 283 281 280 278 278 281 281 277 273 268 263 260 259 257 251 240 232 222 210 208 207 205 203 201 200 199 201 203 204 202 204 207 206 208 207 207 204